Meteo Giornale » Osservazioni meteo Brasile » Guarulhos Civ-Mil

ore: 08:00 - Osservazioni Meteo Guarulhos Civ-Mil
Lat. 23° 26' S Lon. 46° 28' W Alt. 750 metri s.l.m.

coperto_pioggia

19 °C

Pioggia Foschia

Temp. 24 Ore

18 °C

25 °C

Ovest/Nord-Ovest

14.8 Km/h

Dew point 17 °C

Umidità 88 %

Visibilità  4 Km

Il sole sorge alle ore 06:16

Il sole tramonta alle ore 17:55

Data e Ora Cielo e Fenomeni T °C DP °C Um. % Pres. hPa Vis. km Vento km/h
Oggi h: 08:00 coperto_pioggia Pioggia Foschia 19 17 88 1015 4 O/NO 14.8
Oggi h: 07:00 coperto_pioggia Pioggia 19 17 88 1014 7 NO 14.8
Oggi h: 06:00 coperto_pioggia Pioggia 19 17 88 1014 10 N 11.1
Oggi h: 05:26 coperto_pioggia Pioggia 18 18 100 1014 8 N 5.5
Oggi h: 05:00 coperto_pioggia Pioggia Foschia 18 18 100 1015 5 N 0
Oggi h: 04:00 nuvoloso_temporali Temporale Foschia 18 18 100 1015 4 O/SO 13
Oggi h: 03:28 nuvoloso_temporali Temporale Foschia 18 17 93 1015 3 SO 11.1
Oggi h: 03:12 coperto_pioggia Pioggia 19 18 93 1015 9 S 11.1
Oggi h: 03:00 coperto_pioggia Pioggia Temporale nelle vicinanze 19 19 100 1015 10 SO 13
Oggi h: 02:25 poco_nuvoloso Poco Nuvoloso 19 18 93 1011 8 NE 20.3
Oggi h: 02:00 nuvoloso_temporali Temporale 19 18 93 1013 7 N 5.5
Oggi h: 01:40 nuvoloso_temporali Temporale 19 18 93 1014 6 N 0
Oggi h: 01:18 nuvoloso_temporali Temporale Foschia 20 18 88 1014 4 S/SO 16.7
Oggi h: 01:09 nuvoloso_temporali Temporale 20 19 93 1013 8 S 22.2
Oggi h: 01:00 molto_nuvoloso Molto Nuvoloso 20 19 93 1013 9 S 13
Oggi h: 00:40 molto_nuvoloso Molto Nuvoloso 20 19 93 1012 9 E 11.1
Oggi h: 00:00 poco_nuvoloso Poco Nuvoloso 20 19 93 1012 10 E/NE 18.5
Ieri h: 23:00 poco_nuvoloso Poco Nuvoloso 20 19 93 1012 10 E/NE 14.8
Ieri h: 22:00 sereno Sereno 20 18 88 1012 10 NE 11.1
Ieri h: 21:11 poco_nuvoloso Poco Nuvoloso 21 19 88 1013 10 E/NE 11.1
Ieri h: 21:00 molto_nuvoloso Molto Nuvoloso 21 19 88 1013 9 E/NE 9.3
Ieri h: 20:00 molto_nuvoloso Molto Nuvoloso 22 20 88 1013 9 E/SE 9.3
Ieri h: 19:25 molto_nuvoloso Molto Nuvoloso 22 20 88 1012 10 S/SE 7.4
Ieri h: 19:00 sereno Sereno 22 20 88 1012 10 E 11.1
Ieri h: 18:00 poco_nuvoloso Poco Nuvoloso 23 20 83 1012 10 E/NE 18.5
Ieri h: 17:00 nuvoloso Nuvoloso 24 21 83 1012 10 E/NE 25.9
Ieri h: 16:00 molto_nuvoloso Molto Nuvoloso 24 20 78 1012 8 E 24
Ieri h: 15:00 coperto Coperto 24 19 73 1013 9 S/SE 11.1
Ieri h: 14:00 coperto Coperto 25 20 73 1014 8 S 11.1
Ieri h: 13:00 sereno Sereno 25 20 73 1014 10 E/NE 20.3
Ieri h: 12:00 sereno Sereno 25 19 69 1015 10 E 22.2
Ieri h: 11:00 sereno Sereno 22 19 83 1016 10 E/NE 25.9
Ieri h: 10:00 poco_nuvoloso Poco Nuvoloso 22 19 83 1017 10 E/NE 27.8
Ieri h: 09:00 poco_nuvoloso Poco Nuvoloso 21 18 82 1017 10 E/NE 24